Regional Weather Roundup
Issued by NWS

Home | Current Version | Previous Version | Graphics & Text | Print | Product List | Glossary On
Versions: 1 2 3 4 5 6 7 8 9 10 11 12 13 14 15 16 17 18 19 20 21 22 23 24 25 26 27 28 29 30 31 32 33 34 35 36 37 38 39 40 41 42 43 44 45 46 47 48 49 50
000
ASUS45 KTFX 300919
RWRMT
MONTANA REGIONAL WEATHER ROUNDUP
NATIONAL WEATHER SERVICE GREAT FALLS MT
300 AM MDT SUN AUG 30 2015

NOTE: "FAIR" INDICATES FEW OR NO CLOUDS BELOW 12000 FEET WITH NO
SIGNIFICANT WEATHER AND/OR OBSTRUCTIONS TO VISIBILITY.

MTZ001>007-043-301000-
WEST OF THE DIVIDE

CITY           SKY/WX    TMP DP  RH WIND       PRES   REMARKS
KALISPELL      CLOUDY    60  50  69 S5        29.84F
MISSOULA       CLOUDY    60  52  74 NW13      29.88S
BUTTE          LGT RAIN  66  43  43 SW10G21   29.95S
MULLAN PASS    CLOUDY    48  38  68 VRB3      29.97S
DEER LODGE       N/A     61  45  55 W5        29.94S
EUREKA           N/A     57  45  62 S7          N/A
HAMILTON         N/A     61  52  72 S5        29.89R
LIBBY            N/A     52  46  82 CALM      29.84R
RONAN            N/A     57  55  93 CALM      29.94S
$$

MTZ008-052>055-301000-
SOUTHWEST MONTANA

CITY           SKY/WX    TMP DP  RH WIND       PRES   REMARKS
BOZEMAN        CLOUDY    73  44  35 SW8       29.86S
DILLON         CLOUDY    65  45  48 CALM      29.89F
W YELLOWSTONE  CLOUDY    52  50  93 W5        30.06F
THREE FORKS      N/A     68  52  56 NW8       29.88S
TWIN BRIDGES     N/A     69  40  34 SE5       29.91R
$$

MTZ009-010-012-014-046-048-049-054-301000-
EAST SLOPES AND CENTRAL MONTANA

CITY           SKY/WX    TMP DP  RH WIND       PRES   REMARKS
CUT BANK       MOCLDY    61  44  53 W21G30    29.80F
GREAT FALLS    CLOUDY    63  52  67 CALM      29.81F HAZE
MALMSTROM AFB  CLOUDY    62  52  69 E3        29.82S
HELENA         CLOUDY    66  47  50 NW5       29.86R HAZE
$$

MTZ011-013-016-021-045-047-050-051-301000-
NORTH CENTRAL MONTANA

CITY           SKY/WX    TMP DP  RH WIND       PRES   REMARKS
HAVRE          CLOUDY    64  51  62 MISG      29.76R
LEWISTOWN      CLOUDY    63  49  60 VRB3      29.85R
N BAR RANCH      N/A     64  46  52 NW7       29.86S
CHINOOK          N/A     68  50  52 SW7       29.74R
FORT BENTON      N/A     64  54  68 CALM      29.79F
$$

MTZ017>020-022>027-061-062-301000-
NORTHEAST MONTANA

CITY           SKY/WX    TMP DP  RH WIND       PRES   REMARKS
GLASGOW        PTCLDY    75  44  33 NE12      29.64F HAZE
JORDAN           N/A     73  46  38 W7        29.70S
SIDNEY         CLOUDY    70  52  52 CALM      29.66S
WOLF POINT     MOCLDY    64  53  67 CALM      29.65F HAZE
MALTA            N/A     69  52  54 CALM      29.68R
PLENTYWOOD       N/A     72  52  49 NW15      29.71R
POPLAR           N/A     66  52  59 N5        29.67F
$$

MTZ028>42-056>058-301000-
SOUTHCENTRAL AND SOUTHEAST MONTANA

CITY           SKY/WX    TMP DP  RH WIND       PRES   REMARKS
BAKER          MOCLDY    66  49  54 SE7       29.75F
BILLINGS       CLOUDY    76  42  29 SW12      29.78F
LIVINGSTON     MOCLDY    75  43  31 SW23G31   29.84S
MILES CITY     MOCLDY    75  45  34 S8        29.68S
FORSYTH          N/A     70  45  40 W5        29.69R
LAUREL           N/A     78  41  26 SW12      29.82R
ROUNDUP          N/A     69  43  39 CALM      29.72F
$$

REGIONAL REPORTS...DAKOTAS

CITY           SKY/WX    TMP DP  RH WIND       PRES   REMARKS
WILLISTON      CLOUDY    68  57  68 CALM      29.67F HAZE
MINOT          MOCLDY    75  58  55 CALM      29.70S
DICKINSON      PTCLDY    65  51  60 S10       29.74F
BEACH            N/A     68  48  49 S10       29.73F
CROSBY           N/A     64  55  72 SE6       29.67F HAZE
TIOGA            N/A     63  59  88 E6        29.74S
BISMARCK       PTCLDY    66  63  90 E7        29.77F
GRAND FORKS    MOCLDY    67  65  93 S10       29.78S
FARGO          PTCLDY    66  62  87 S12       29.83S
BUFFALO SD       N/A     66  50  56 SE9       29.74F
RAPID CITY     CLEAR     66  45  46 CALM      29.87F
$$

REGIONAL REPORTS...WYOMING/IDAHO/WASHINGTON

CITY           SKY/WX    TMP DP  RH WIND       PRES   REMARKS
GILLETTE       CLOUDY    70  35  27 S20       29.87F
SHERIDAN       CLOUDY    62  45  53 S3        29.81F
BUFFALO WY     CLOUDY    77  34  21 CALM      29.91S
CODY           CLOUDY    72  45  37 NW13G21   29.95F
YELLOWSTONE LA   N/A     51  49  92 CALM      30.18F
IDAHO FALLS    PTCLDY    59  55  87 SW7       29.92R
SALMON         CLOUDY    72  43  35 W14G25    29.90R
BOISE          MOCLDY    70  44  39 S3        29.88S
SPOKANE        MOCLDY    56  43  61 S7        29.84R
$$

REGIONAL REPORTS...ALBERTA

CITY           SKY/WX    TMP DP  RH WIND       PRES   REMARKS
EDMONTON       CLEAR     50  46  87 S5        29.48R
CALGARY        MOCLDY    52  37  58 S10       29.63S
LETHBRIDGE     PTCLDY    61  37  41 SW13      29.72S
MEDICINE HAT   LGT RAIN  64  46  52 S13       29.70S
WATERTON GATE    N/A     61  36  39 SW21G32     N/A
CARDSTON         N/A     57  34  41 S5          N/A
MILK RIVER       N/A     61  43  51 SW5         N/A
ONEFOUR          N/A     63  45  51 W8          N/A
$$

REGIONAL REPORTS...SASKATCHEWAN

CITY           SKY/WX    TMP DP  RH WIND       PRES   REMARKS
SWIFT CURRENT  CLEAR     64  52  63 W8        29.69R HAZE
REGINA         CLOUDY    70  52  52 E8        29.67F SMOKE
SASKATOON      TSTM      66  61  82 NE8       29.59F
CYPRESS HILLS    N/A     64  37  36 W8          N/A
VAL MARIE        N/A     64  54  68 SW6         N/A
ROCKGLEN         N/A     68  50  52 NE3         N/A
ASSINIBOIA       N/A     54  48  82 S8          N/A
$$


USA.gov is the U.S. government's official web portal to all federal, state and local government web resources and services.